Year,Month,Day,Hour,Minute,Value (Times are PST for temperature in C)
2020,06,27,00,00,15.60
2020,06,27,00,01,15.60
2020,06,27,00,02,15.50
2020,06,27,00,03,15.50
2020,06,27,00,04,15.50
2020,06,27,00,05,15.50
2020,06,27,00,06,15.40
2020,06,27,00,07,15.40
2020,06,27,00,08,15.40
2020,06,27,00,09,15.40
2020,06,27,00,10,15.30
2020,06,27,00,11,15.30
2020,06,27,00,12,15.30
2020,06,27,00,13,15.30
2020,06,27,00,14,15.30
2020,06,27,00,15,15.30
2020,06,27,00,16,15.20
2020,06,27,00,17,15.20
2020,06,27,00,18,15.20
2020,06,27,00,19,15.20
2020,06,27,00,20,15.20
2020,06,27,00,21,15.20
2020,06,27,00,22,15.10
2020,06,27,00,23,15.10
2020,06,27,00,24,15.10
2020,06,27,00,25,15.10
2020,06,27,00,26,15.00
2020,06,27,00,27,15.00
2020,06,27,00,28,15.00
2020,06,27,00,29,14.90
2020,06,27,00,30,14.90
2020,06,27,00,31,14.90
2020,06,27,00,32,14.90
2020,06,27,00,33,14.80
2020,06,27,00,34,14.80
2020,06,27,00,35,14.80
2020,06,27,00,36,14.80
2020,06,27,00,37,14.80
2020,06,27,00,38,14.80
2020,06,27,00,39,14.70
2020,06,27,00,40,14.70
2020,06,27,00,41,14.70
2020,06,27,00,42,14.70
2020,06,27,00,43,14.70
2020,06,27,00,44,14.70
2020,06,27,00,45,14.70
2020,06,27,00,46,14.70
2020,06,27,00,47,14.70
2020,06,27,00,48,14.70
2020,06,27,00,49,14.70
2020,06,27,00,50,14.60
2020,06,27,00,51,14.60
2020,06,27,00,52,14.60
2020,06,27,00,53,14.60
2020,06,27,00,54,14.60
2020,06,27,00,55,14.60
2020,06,27,00,56,14.60
2020,06,27,00,57,14.60
2020,06,27,00,58,14.60
2020,06,27,00,59,14.60
2020,06,27,01,00,14.60
2020,06,27,01,01,14.50
2020,06,27,01,02,14.50
2020,06,27,01,03,14.50
2020,06,27,01,04,14.50
2020,06,27,01,05,14.50
2020,06,27,01,06,14.50
2020,06,27,01,07,14.50
2020,06,27,01,08,14.50
2020,06,27,01,09,14.40
2020,06,27,01,10,14.40
2020,06,27,01,11,14.40
2020,06,27,01,12,14.40
2020,06,27,01,13,14.40
2020,06,27,01,14,14.50
2020,06,27,01,15,14.50
2020,06,27,01,16,14.50
2020,06,27,01,17,14.50
2020,06,27,01,18,14.50
2020,06,27,01,19,14.60
2020,06,27,01,20,14.60
2020,06,27,01,21,14.60
2020,06,27,01,22,14.60
2020,06,27,01,23,14.60
2020,06,27,01,24,14.60
2020,06,27,01,25,14.60
2020,06,27,01,26,14.50
2020,06,27,01,27,14.50
2020,06,27,01,28,14.50
2020,06,27,01,29,14.40
2020,06,27,01,30,14.40
2020,06,27,01,31,14.40
2020,06,27,01,32,14.30
2020,06,27,01,33,14.30
2020,06,27,01,34,14.30
2020,06,27,01,35,14.20
2020,06,27,01,36,14.20
2020,06,27,01,37,14.20
2020,06,27,01,38,14.20
2020,06,27,01,39,14.20
2020,06,27,01,40,14.20
2020,06,27,01,41,14.20
2020,06,27,01,42,14.20
2020,06,27,01,43,14.10
2020,06,27,01,44,14.10
2020,06,27,01,45,14.10
2020,06,27,01,46,14.10
2020,06,27,01,47,14.10
2020,06,27,01,48,14.00
2020,06,27,01,49,14.00
2020,06,27,01,50,14.00
2020,06,27,01,51,14.00
2020,06,27,01,52,14.00
2020,06,27,01,53,13.90
2020,06,27,01,54,13.90
2020,06,27,01,55,13.90
2020,06,27,01,56,13.90
2020,06,27,01,57,13.90
2020,06,27,01,58,13.90
2020,06,27,01,59,13.80
2020,06,27,02,00,13.80
2020,06,27,02,01,13.80
2020,06,27,02,02,13.80
2020,06,27,02,03,13.80
2020,06,27,02,04,13.80
2020,06,27,02,05,13.80
2020,06,27,02,06,13.80
2020,06,27,02,07,13.80
2020,06,27,02,08,13.80
2020,06,27,02,09,13.80
2020,06,27,02,10,13.80
2020,06,27,02,11,13.80
2020,06,27,02,12,13.70
2020,06,27,02,13,13.70
2020,06,27,02,14,13.70
2020,06,27,02,15,13.70
2020,06,27,02,16,13.70
2020,06,27,02,17,13.70
2020,06,27,02,18,13.70
2020,06,27,02,19,13.70
2020,06,27,02,20,13.70
2020,06,27,02,21,13.70
2020,06,27,02,22,13.60
2020,06,27,02,23,13.60
2020,06,27,02,24,13.60
2020,06,27,02,25,13.60
2020,06,27,02,26,13.60
2020,06,27,02,27,13.60
2020,06,27,02,28,13.60
2020,06,27,02,29,13.60
2020,06,27,02,30,13.60
2020,06,27,02,31,13.60
2020,06,27,02,32,13.60
2020,06,27,02,33,13.60
2020,06,27,02,34,13.60
2020,06,27,02,35,13.50
2020,06,27,02,36,13.50
2020,06,27,02,37,13.50
2020,06,27,02,38,13.50
2020,06,27,02,39,13.50
2020,06,27,02,40,13.50
2020,06,27,02,41,13.50
2020,06,27,02,42,13.50
2020,06,27,02,43,13.50
2020,06,27,02,44,13.50
2020,06,27,02,45,13.50
2020,06,27,02,46,13.50
2020,06,27,02,47,13.50
2020,06,27,02,48,13.50
2020,06,27,02,49,13.50
2020,06,27,02,50,13.50
2020,06,27,02,51,13.50
2020,06,27,02,52,13.50
2020,06,27,02,53,13.50
2020,06,27,02,54,13.50
2020,06,27,02,55,13.50
2020,06,27,02,56,13.50
2020,06,27,02,57,13.50
2020,06,27,02,58,13.50
2020,06,27,02,59,13.50
2020,06,27,03,00,13.50
2020,06,27,03,01,13.50
2020,06,27,03,02,13.40
2020,06,27,03,03,13.40
2020,06,27,03,04,13.40
2020,06,27,03,05,13.40
2020,06,27,03,06,13.40
2020,06,27,03,07,13.40
2020,06,27,03,08,13.40
2020,06,27,03,09,13.40
2020,06,27,03,10,13.40
2020,06,27,03,11,13.40
2020,06,27,03,12,13.40
2020,06,27,03,13,13.40
2020,06,27,03,14,13.40
2020,06,27,03,15,13.40
2020,06,27,03,16,13.40
2020,06,27,03,17,13.40
2020,06,27,03,18,13.40
2020,06,27,03,19,13.40
2020,06,27,03,20,13.50
2020,06,27,03,21,13.50
2020,06,27,03,22,13.50
2020,06,27,03,23,13.50
2020,06,27,03,24,13.50
2020,06,27,03,25,13.50
2020,06,27,03,26,13.50
2020,06,27,03,27,13.50
2020,06,27,03,28,13.50
2020,06,27,03,29,13.50
2020,06,27,03,30,13.40
2020,06,27,03,31,13.50
2020,06,27,03,32,13.50
2020,06,27,03,33,13.50
2020,06,27,03,34,13.50
2020,06,27,03,35,13.50
2020,06,27,03,36,13.40
2020,06,27,03,37,13.50
2020,06,27,03,38,13.40
2020,06,27,03,39,13.50
2020,06,27,03,40,13.40
2020,06,27,03,41,13.50
2020,06,27,03,42,13.40
2020,06,27,03,43,13.50
2020,06,27,03,44,13.40
2020,06,27,03,45,13.40
2020,06,27,03,46,13.40
2020,06,27,03,47,13.40
2020,06,27,03,48,13.40
2020,06,27,03,49,13.40
2020,06,27,03,50,13.30
2020,06,27,03,51,13.30
2020,06,27,03,52,13.30
2020,06,27,03,53,13.30
2020,06,27,03,54,13.30
2020,06,27,03,55,13.30
2020,06,27,03,56,13.30
2020,06,27,03,57,13.30
2020,06,27,03,58,13.30
2020,06,27,03,59,13.30
2020,06,27,04,00,13.30
2020,06,27,04,01,13.30
2020,06,27,04,02,13.30
2020,06,27,04,03,13.30
2020,06,27,04,04,13.30
2020,06,27,04,05,13.30
2020,06,27,04,06,13.30
2020,06,27,04,07,13.30
2020,06,27,04,08,13.30
2020,06,27,04,09,13.30
2020,06,27,04,10,13.30
2020,06,27,04,11,13.30
2020,06,27,04,12,13.30
2020,06,27,04,13,13.20
2020,06,27,04,14,13.20
2020,06,27,04,15,13.20
2020,06,27,04,16,13.20
2020,06,27,04,17,13.20
2020,06,27,04,18,13.10
2020,06,27,04,19,13.10
2020,06,27,04,20,13.10
2020,06,27,04,21,13.10
2020,06,27,04,22,13.10
2020,06,27,04,23,13.10
2020,06,27,04,24,13.10
2020,06,27,04,25,13.10
2020,06,27,04,26,13.10
2020,06,27,04,27,13.10
2020,06,27,04,28,13.10
2020,06,27,04,29,13.10
2020,06,27,04,30,13.10
2020,06,27,04,31,13.10
2020,06,27,04,32,13.10
2020,06,27,04,33,13.10
2020,06,27,04,34,13.10
2020,06,27,04,35,13.10
2020,06,27,04,36,13.10
2020,06,27,04,37,13.10
2020,06,27,04,38,13.10
2020,06,27,04,39,13.10
2020,06,27,04,40,13.10
2020,06,27,04,41,13.10
2020,06,27,04,42,13.10
2020,06,27,04,43,13.10
2020,06,27,04,44,13.10
2020,06,27,04,45,13.10
2020,06,27,04,46,13.10
2020,06,27,04,47,13.10
2020,06,27,04,48,13.10
2020,06,27,04,49,13.10
2020,06,27,04,50,13.10
2020,06,27,04,51,13.10
2020,06,27,04,52,13.10
2020,06,27,04,53,13.10
2020,06,27,04,54,13.10
2020,06,27,04,55,13.10
2020,06,27,04,56,13.10
2020,06,27,04,57,13.10
2020,06,27,04,58,13.10
2020,06,27,04,59,13.10
2020,06,27,05,00,13.10
2020,06,27,05,01,13.10
2020,06,27,05,02,13.10
2020,06,27,05,03,13.10
2020,06,27,05,04,13.10
2020,06,27,05,05,13.10
2020,06,27,05,06,13.10
2020,06,27,05,07,13.10
2020,06,27,05,08,13.10
2020,06,27,05,09,13.10
2020,06,27,05,10,13.10
2020,06,27,05,11,13.10
2020,06,27,05,12,13.10
2020,06,27,05,13,13.10
2020,06,27,05,14,13.10
2020,06,27,05,15,13.10
2020,06,27,05,16,13.10
2020,06,27,05,17,13.10
2020,06,27,05,18,13.10
2020,06,27,05,19,13.10
2020,06,27,05,20,13.10
2020,06,27,05,21,13.10
2020,06,27,05,22,13.10
2020,06,27,05,23,13.10
2020,06,27,05,24,13.10
2020,06,27,05,25,13.10
2020,06,27,05,26,13.10
2020,06,27,05,27,13.10
2020,06,27,05,28,13.00
2020,06,27,05,29,13.00
2020,06,27,05,30,13.00
2020,06,27,05,31,13.00
2020,06,27,05,32,13.00
2020,06,27,05,33,13.00
2020,06,27,05,34,12.90
2020,06,27,05,35,12.90
2020,06,27,05,36,12.90
2020,06,27,05,37,12.90
2020,06,27,05,38,12.90
2020,06,27,05,39,12.90
2020,06,27,05,40,12.90
2020,06,27,05,41,12.90
2020,06,27,05,42,12.90
2020,06,27,05,43,12.90
2020,06,27,05,44,13.00
2020,06,27,05,45,13.00
2020,06,27,05,46,13.00
2020,06,27,05,47,13.00
2020,06,27,05,48,13.00
2020,06,27,05,49,13.00
2020,06,27,05,50,13.00
2020,06,27,05,51,13.00
2020,06,27,05,52,13.00
2020,06,27,05,53,13.00
2020,06,27,05,54,13.00
2020,06,27,05,55,13.00
2020,06,27,05,56,13.00
2020,06,27,05,57,13.00
2020,06,27,05,58,13.00
2020,06,27,05,59,13.00
2020,06,27,06,00,13.00
2020,06,27,06,01,13.00
2020,06,27,06,02,13.00
2020,06,27,06,03,13.00
2020,06,27,06,04,13.00
2020,06,27,06,05,13.00
2020,06,27,06,06,13.00
2020,06,27,06,07,13.00
2020,06,27,06,08,13.00
2020,06,27,06,09,13.00
2020,06,27,06,10,13.00
2020,06,27,06,11,13.00
2020,06,27,06,12,13.00
2020,06,27,06,13,13.00
2020,06,27,06,14,13.00
2020,06,27,06,15,13.00
2020,06,27,06,16,12.90
2020,06,27,06,17,12.90
2020,06,27,06,18,12.90
2020,06,27,06,19,12.90
2020,06,27,06,20,12.90
2020,06,27,06,21,12.90
2020,06,27,06,22,12.90
2020,06,27,06,23,12.90
2020,06,27,06,24,12.90
2020,06,27,06,25,12.90
2020,06,27,06,26,12.80
2020,06,27,06,27,12.80
2020,06,27,06,28,12.90
2020,06,27,06,29,12.90
2020,06,27,06,30,12.90
2020,06,27,06,31,12.90
2020,06,27,06,32,12.80
2020,06,27,06,33,12.80
2020,06,27,06,34,12.80
2020,06,27,06,35,12.80
2020,06,27,06,36,12.80
2020,06,27,06,37,12.80
2020,06,27,06,38,12.80
2020,06,27,06,39,12.80
2020,06,27,06,40,12.80
2020,06,27,06,41,12.80
2020,06,27,06,42,12.80
2020,06,27,06,43,12.70
2020,06,27,06,44,12.70
2020,06,27,06,45,12.70
2020,06,27,06,46,12.70
2020,06,27,06,47,12.70
2020,06,27,06,48,12.60
2020,06,27,06,49,12.60
2020,06,27,06,50,12.60
2020,06,27,06,51,12.60
2020,06,27,06,52,12.60
2020,06,27,06,53,12.60
2020,06,27,06,54,12.60
2020,06,27,06,55,12.60
2020,06,27,06,56,12.60
2020,06,27,06,57,12.60
2020,06,27,06,58,12.60
2020,06,27,06,59,12.60
2020,06,27,07,00,12.50
2020,06,27,07,01,12.50
2020,06,27,07,02,12.50
2020,06,27,07,03,12.50
2020,06,27,07,04,12.50
2020,06,27,07,05,12.50
2020,06,27,07,06,12.50
2020,06,27,07,07,12.50
2020,06,27,07,08,12.50
2020,06,27,07,09,12.50
2020,06,27,07,10,12.50
2020,06,27,07,11,12.50
2020,06,27,07,12,12.50
2020,06,27,07,13,12.50
2020,06,27,07,14,12.60
2020,06,27,07,15,12.60
2020,06,27,07,16,12.60
2020,06,27,07,17,12.60
2020,06,27,07,18,12.60
2020,06,27,07,19,12.60
2020,06,27,07,20,12.60
2020,06,27,07,21,12.60
2020,06,27,07,22,12.60
2020,06,27,07,23,12.60
2020,06,27,07,24,12.60
2020,06,27,07,25,12.60
2020,06,27,07,26,12.60
2020,06,27,07,27,12.60
2020,06,27,07,28,12.60
2020,06,27,07,29,12.50
2020,06,27,07,30,12.50
2020,06,27,07,31,12.50
2020,06,27,07,32,12.50
2020,06,27,07,33,12.50
2020,06,27,07,34,12.50
2020,06,27,07,35,12.50
2020,06,27,07,36,12.50
2020,06,27,07,37,12.60
2020,06,27,07,38,12.50
2020,06,27,07,39,12.60
2020,06,27,07,40,12.60
2020,06,27,07,41,12.60
2020,06,27,07,42,12.60
2020,06,27,07,43,12.60
2020,06,27,07,44,12.60
2020,06,27,07,45,12.60
2020,06,27,07,46,12.60
2020,06,27,07,47,12.60
2020,06,27,07,48,12.60
2020,06,27,07,49,12.60
2020,06,27,07,50,12.60
2020,06,27,07,51,12.60
2020,06,27,07,52,12.60
2020,06,27,07,53,12.60
2020,06,27,07,54,12.60
2020,06,27,07,55,12.60
2020,06,27,07,56,12.70
2020,06,27,07,57,12.70
2020,06,27,07,58,12.70
2020,06,27,07,59,12.70
2020,06,27,08,00,12.70
2020,06,27,08,01,12.70
2020,06,27,08,02,12.70
2020,06,27,08,03,12.70
2020,06,27,08,04,12.70
2020,06,27,08,05,12.70
2020,06,27,08,06,12.70
2020,06,27,08,07,12.70
2020,06,27,08,08,12.80
2020,06,27,08,09,12.70
2020,06,27,08,10,12.70
2020,06,27,08,11,12.70
2020,06,27,08,12,12.80
2020,06,27,08,13,12.80
2020,06,27,08,14,12.80
2020,06,27,08,15,12.80
2020,06,27,08,16,12.70
2020,06,27,08,17,12.70
2020,06,27,08,18,12.80
2020,06,27,08,19,12.80
2020,06,27,08,20,12.80
2020,06,27,08,21,12.80
2020,06,27,08,22,12.80
2020,06,27,08,23,12.80
2020,06,27,08,24,12.90
2020,06,27,08,25,12.90
2020,06,27,08,26,12.90
2020,06,27,08,27,13.00
2020,06,27,08,28,13.00
2020,06,27,08,29,13.00
2020,06,27,08,30,13.00
2020,06,27,08,31,13.00
2020,06,27,08,32,13.00
2020,06,27,08,33,13.10
2020,06,27,08,34,13.10
2020,06,27,08,35,13.10
2020,06,27,08,36,13.10
2020,06,27,08,37,13.20
2020,06,27,08,38,13.20
2020,06,27,08,39,13.20
2020,06,27,08,40,13.30
2020,06,27,08,41,13.30
2020,06,27,08,42,13.30
2020,06,27,08,43,13.30
2020,06,27,08,44,13.30
2020,06,27,08,45,13.30
2020,06,27,08,46,13.40
2020,06,27,08,47,13.40
2020,06,27,08,48,13.40
2020,06,27,08,49,13.50
2020,06,27,08,50,13.50
2020,06,27,08,51,13.60
2020,06,27,08,52,13.60
2020,06,27,08,53,13.60
2020,06,27,08,54,13.70
2020,06,27,08,55,13.70
2020,06,27,08,56,13.70
2020,06,27,08,57,13.70
2020,06,27,08,58,13.70
2020,06,27,08,59,13.70
2020,06,27,09,00,13.80
2020,06,27,09,01,13.80
2020,06,27,09,02,13.80
2020,06,27,09,03,13.80
2020,06,27,09,04,13.80
2020,06,27,09,05,13.80
2020,06,27,09,06,13.80
2020,06,27,09,07,13.80
2020,06,27,09,08,13.80
2020,06,27,09,09,13.90
2020,06,27,09,10,13.90
2020,06,27,09,11,14.00
2020,06,27,09,12,14.10
2020,06,27,09,13,14.10
2020,06,27,09,14,14.10
2020,06,27,09,15,14.20
2020,06,27,09,16,14.20
2020,06,27,09,17,14.20
2020,06,27,09,18,14.20
2020,06,27,09,19,14.30
2020,06,27,09,20,14.30
2020,06,27,09,21,14.30
2020,06,27,09,22,14.30
2020,06,27,09,23,14.30
2020,06,27,09,24,14.30
2020,06,27,09,25,14.30
2020,06,27,09,26,14.40
2020,06,27,09,27,14.40
2020,06,27,09,28,14.50
2020,06,27,09,29,14.50
2020,06,27,09,30,14.50
2020,06,27,09,31,14.60
2020,06,27,09,32,14.60
2020,06,27,09,33,14.60
2020,06,27,09,34,14.60
2020,06,27,09,35,14.70
2020,06,27,09,36,14.70
2020,06,27,09,37,14.70
2020,06,27,09,38,14.60
2020,06,27,09,39,14.50
2020,06,27,09,40,14.50
2020,06,27,09,41,14.50
2020,06,27,09,42,14.60
2020,06,27,09,43,14.60
2020,06,27,09,44,14.60
2020,06,27,09,45,14.60
2020,06,27,09,46,14.60
2020,06,27,09,47,14.60
2020,06,27,09,48,14.70
2020,06,27,09,49,14.70
2020,06,27,09,50,14.70
2020,06,27,09,51,14.70
2020,06,27,09,52,14.70
2020,06,27,09,53,14.70
2020,06,27,09,54,14.70
2020,06,27,09,55,14.70
2020,06,27,09,56,14.70
2020,06,27,09,57,14.70
2020,06,27,09,58,14.70
2020,06,27,09,59,14.70
2020,06,27,10,00,14.70
2020,06,27,10,01,14.70
2020,06,27,10,02,14.60
2020,06,27,10,03,14.60
2020,06,27,10,04,14.60
2020,06,27,10,05,14.70
2020,06,27,10,06,14.70
2020,06,27,10,07,14.70
2020,06,27,10,08,14.70
2020,06,27,10,09,14.70
2020,06,27,10,10,14.70
2020,06,27,10,11,14.80
2020,06,27,10,12,14.80
2020,06,27,10,13,14.80
2020,06,27,10,14,14.80
2020,06,27,10,15,14.80
2020,06,27,10,16,14.80
2020,06,27,10,17,14.80
2020,06,27,10,18,14.80
2020,06,27,10,19,14.80
2020,06,27,10,20,14.90
2020,06,27,10,21,14.90
2020,06,27,10,22,14.90
2020,06,27,10,23,14.90
2020,06,27,10,24,14.90
2020,06,27,10,25,14.80
2020,06,27,10,26,14.80
2020,06,27,10,27,14.80
2020,06,27,10,28,14.80
2020,06,27,10,29,14.80
2020,06,27,10,30,14.80
2020,06,27,10,31,14.80
2020,06,27,10,32,14.80
2020,06,27,10,33,14.80
2020,06,27,10,34,14.80
2020,06,27,10,35,14.80
2020,06,27,10,36,14.80
2020,06,27,10,37,14.80
2020,06,27,10,38,14.80
2020,06,27,10,39,14.80
2020,06,27,10,40,14.80
2020,06,27,10,41,14.80
2020,06,27,10,42,14.80
2020,06,27,10,43,14.80
2020,06,27,10,44,14.80
2020,06,27,10,45,14.80
2020,06,27,10,46,14.80
2020,06,27,10,47,14.80
2020,06,27,10,48,14.80
2020,06,27,10,49,14.80
2020,06,27,10,50,14.80
2020,06,27,10,51,14.80
2020,06,27,10,52,14.80
2020,06,27,10,53,14.80
2020,06,27,10,54,14.80
2020,06,27,10,55,14.80
2020,06,27,10,56,14.90
2020,06,27,10,57,14.90
2020,06,27,10,58,15.00
2020,06,27,10,59,15.10
2020,06,27,11,00,15.10
2020,06,27,11,01,15.20
2020,06,27,11,02,15.10
2020,06,27,11,03,15.10
2020,06,27,11,04,15.20
2020,06,27,11,05,15.20
2020,06,27,11,06,15.30
2020,06,27,11,07,15.30
2020,06,27,11,08,15.30
2020,06,27,11,09,15.30
2020,06,27,11,10,15.30
2020,06,27,11,11,15.30
2020,06,27,11,12,15.30
2020,06,27,11,13,15.30
2020,06,27,11,14,15.40
2020,06,27,11,15,15.40
2020,06,27,11,16,15.40
2020,06,27,11,17,15.40
2020,06,27,11,18,15.40
2020,06,27,11,19,15.50
2020,06,27,11,20,15.40
2020,06,27,11,21,15.40
2020,06,27,11,22,15.40
2020,06,27,11,23,15.40
2020,06,27,11,24,15.30
2020,06,27,11,25,15.30
2020,06,27,11,26,15.30
2020,06,27,11,27,15.20
2020,06,27,11,28,15.20
2020,06,27,11,29,15.20
2020,06,27,11,30,15.20
2020,06,27,11,31,15.20
2020,06,27,11,32,15.30
2020,06,27,11,33,15.30
2020,06,27,11,34,15.30
2020,06,27,11,35,15.30
2020,06,27,11,36,15.30
2020,06,27,11,37,15.30
2020,06,27,11,38,15.30
2020,06,27,11,39,15.30
2020,06,27,11,40,15.30
2020,06,27,11,41,15.30
2020,06,27,11,42,15.30
2020,06,27,11,43,15.30
2020,06,27,11,44,15.30
2020,06,27,11,45,15.40
2020,06,27,11,46,15.40
2020,06,27,11,47,15.40
2020,06,27,11,48,15.50
2020,06,27,11,49,15.50
2020,06,27,11,50,15.60
2020,06,27,11,51,15.60
2020,06,27,11,52,15.70
2020,06,27,11,53,15.70
2020,06,27,11,54,15.70
2020,06,27,11,55,15.70
2020,06,27,11,56,15.80
2020,06,27,11,57,15.80
2020,06,27,11,58,15.80
2020,06,27,11,59,15.80
2020,06,27,12,00,15.80
2020,06,27,12,01,15.70
2020,06,27,12,02,15.70
2020,06,27,12,03,15.70
2020,06,27,12,04,15.70
2020,06,27,12,05,15.70
2020,06,27,12,06,15.70
2020,06,27,12,07,15.70
2020,06,27,12,08,15.60
2020,06,27,12,09,15.60
2020,06,27,12,10,15.60
2020,06,27,12,11,15.60
2020,06,27,12,12,15.50
2020,06,27,12,13,15.50
2020,06,27,12,14,15.40
2020,06,27,12,15,15.40
2020,06,27,12,16,15.40
2020,06,27,12,17,15.40
2020,06,27,12,18,15.40
2020,06,27,12,19,15.40
2020,06,27,12,20,15.40
2020,06,27,12,21,15.40
2020,06,27,12,22,15.40
2020,06,27,12,23,15.40
2020,06,27,12,24,15.40
2020,06,27,12,25,15.50
2020,06,27,12,26,15.50
2020,06,27,12,27,15.50
2020,06,27,12,28,15.60
2020,06,27,12,29,15.70
2020,06,27,12,30,15.70
2020,06,27,12,31,15.70
2020,06,27,12,32,15.70
2020,06,27,12,33,15.70
2020,06,27,12,34,15.70
2020,06,27,12,35,15.70
2020,06,27,12,36,15.70
2020,06,27,12,37,15.70
2020,06,27,12,38,15.70
2020,06,27,12,39,15.70
2020,06,27,12,40,15.70
2020,06,27,12,41,15.70
2020,06,27,12,42,15.80
2020,06,27,12,43,15.80
2020,06,27,12,44,15.80
2020,06,27,12,45,15.80
2020,06,27,12,46,15.80
2020,06,27,12,47,15.80
2020,06,27,12,48,15.80
2020,06,27,12,49,15.80
2020,06,27,12,50,15.80
2020,06,27,12,51,15.80
2020,06,27,12,52,15.80
2020,06,27,12,53,15.80
2020,06,27,12,54,15.80
2020,06,27,12,55,15.80
2020,06,27,12,56,15.80
2020,06,27,12,57,15.80
2020,06,27,12,58,15.80
2020,06,27,12,59,15.80
2020,06,27,13,00,15.70
2020,06,27,13,01,15.70
2020,06,27,13,02,15.80
2020,06,27,13,03,15.80
2020,06,27,13,04,15.80
2020,06,27,13,05,15.80
2020,06,27,13,06,15.80
2020,06,27,13,07,15.80
2020,06,27,13,08,15.80
2020,06,27,13,09,15.90
2020,06,27,13,10,15.90
2020,06,27,13,11,15.90
2020,06,27,13,12,15.90
2020,06,27,13,13,15.90
2020,06,27,13,14,15.80
2020,06,27,13,15,15.80
2020,06,27,13,16,15.80
2020,06,27,13,17,15.80
2020,06,27,13,18,15.80
2020,06,27,13,19,15.80
2020,06,27,13,20,15.90
2020,06,27,13,21,15.90
2020,06,27,13,22,15.90
2020,06,27,13,23,15.90
2020,06,27,13,24,16.00
2020,06,27,13,25,16.00
2020,06,27,13,26,16.00
2020,06,27,13,27,16.00
2020,06,27,13,28,16.00
2020,06,27,13,29,16.10
2020,06,27,13,30,16.10
2020,06,27,13,31,16.10
2020,06,27,13,32,16.10
2020,06,27,13,33,16.10
2020,06,27,13,34,16.10
2020,06,27,13,35,16.10
2020,06,27,13,36,16.00
2020,06,27,13,37,16.00
2020,06,27,13,38,16.00
2020,06,27,13,39,16.00
2020,06,27,13,40,16.00
2020,06,27,13,41,16.00
2020,06,27,13,42,16.00
2020,06,27,13,43,16.10
2020,06,27,13,44,16.10
2020,06,27,13,45,16.10
2020,06,27,13,46,16.10
2020,06,27,13,47,16.20
2020,06,27,13,48,16.20
2020,06,27,13,49,16.20
2020,06,27,13,50,16.20
2020,06,27,13,51,16.20
2020,06,27,13,52,16.30
2020,06,27,13,53,16.30
2020,06,27,13,54,16.30
2020,06,27,13,55,16.40
2020,06,27,13,56,16.40
2020,06,27,13,57,16.40
2020,06,27,13,58,16.50
2020,06,27,13,59,16.50
2020,06,27,14,00,16.60
2020,06,27,14,01,16.60
2020,06,27,14,02,16.70
2020,06,27,14,03,16.80
2020,06,27,14,04,16.80
2020,06,27,14,05,16.90
2020,06,27,14,06,16.90
2020,06,27,14,07,17.00
2020,06,27,14,08,17.00
2020,06,27,14,09,17.10
2020,06,27,14,10,17.10
2020,06,27,14,11,17.20
2020,06,27,14,12,17.20
2020,06,27,14,13,17.30
2020,06,27,14,14,17.30
2020,06,27,14,15,17.30
2020,06,27,14,16,17.20
2020,06,27,14,17,17.20
2020,06,27,14,18,17.20
2020,06,27,14,19,17.30
2020,06,27,14,20,17.20
2020,06,27,14,21,17.20
2020,06,27,14,22,17.10
2020,06,27,14,23,17.10
2020,06,27,14,24,17.10
2020,06,27,14,25,17.10
2020,06,27,14,26,17.10
2020,06,27,14,27,17.10
2020,06,27,14,28,17.10
2020,06,27,14,29,17.10
2020,06,27,14,30,17.00
2020,06,27,14,31,17.00
2020,06,27,14,32,17.00
2020,06,27,14,33,17.10
2020,06,27,14,34,17.10
2020,06,27,14,35,17.20
2020,06,27,14,36,17.30
2020,06,27,14,37,17.40
2020,06,27,14,38,17.40
2020,06,27,14,39,17.40
2020,06,27,14,40,17.40
2020,06,27,14,41,17.40
2020,06,27,14,42,17.40
2020,06,27,14,43,17.40
2020,06,27,14,44,17.40
2020,06,27,14,45,17.50
2020,06,27,14,46,17.60
2020,06,27,14,47,17.60
2020,06,27,14,48,17.60
2020,06,27,14,49,17.70
2020,06,27,14,50,17.70
2020,06,27,14,51,17.70
2020,06,27,14,52,17.70
2020,06,27,14,53,17.70
2020,06,27,14,54,17.70
2020,06,27,14,55,17.60
2020,06,27,14,56,17.60
2020,06,27,14,57,17.50
2020,06,27,14,58,17.50
2020,06,27,14,59,17.50
2020,06,27,15,00,17.50
2020,06,27,15,01,17.50
2020,06,27,15,02,17.60
2020,06,27,15,03,17.60
2020,06,27,15,04,17.60
2020,06,27,15,05,17.60
2020,06,27,15,06,17.60
2020,06,27,15,07,17.60
2020,06,27,15,08,17.60
2020,06,27,15,09,17.60
2020,06,27,15,10,17.60
2020,06,27,15,11,17.60
2020,06,27,15,12,17.60
2020,06,27,15,13,17.70
2020,06,27,15,14,17.70
2020,06,27,15,15,17.70
2020,06,27,15,16,17.70
2020,06,27,15,17,17.70
2020,06,27,15,18,17.60
2020,06,27,15,19,17.60
2020,06,27,15,20,17.60
2020,06,27,15,21,17.60
2020,06,27,15,22,17.60
2020,06,27,15,23,17.50
2020,06,27,15,24,17.40
2020,06,27,15,25,17.30
2020,06,27,15,26,17.20
2020,06,27,15,27,17.10
2020,06,27,15,28,17.10
2020,06,27,15,29,17.10
2020,06,27,15,30,17.00
2020,06,27,15,31,17.00
2020,06,27,15,32,17.00
2020,06,27,15,33,16.90
2020,06,27,15,34,16.90
2020,06,27,15,35,16.90
2020,06,27,15,36,16.90
2020,06,27,15,37,16.90
2020,06,27,15,38,16.80
2020,06,27,15,39,16.80
2020,06,27,15,40,16.90
2020,06,27,15,41,16.90
2020,06,27,15,42,16.90
2020,06,27,15,43,16.90
2020,06,27,15,44,16.90
2020,06,27,15,45,16.90
2020,06,27,15,46,16.90
2020,06,27,15,47,16.90
2020,06,27,15,48,16.90
2020,06,27,15,49,16.90
2020,06,27,15,50,16.90
2020,06,27,15,51,16.90
2020,06,27,15,52,16.90
2020,06,27,15,53,16.90
2020,06,27,15,54,16.90
2020,06,27,15,55,16.90
2020,06,27,15,56,16.90
2020,06,27,15,57,16.90
2020,06,27,15,58,16.90
2020,06,27,15,59,16.90
2020,06,27,16,00,16.80
2020,06,27,16,01,16.80
2020,06,27,16,02,16.80
2020,06,27,16,03,16.90
2020,06,27,16,04,16.90
2020,06,27,16,05,16.90
2020,06,27,16,06,16.90
2020,06,27,16,07,16.90
2020,06,27,16,08,17.00
2020,06,27,16,09,17.00
2020,06,27,16,10,17.10
2020,06,27,16,11,17.10
2020,06,27,16,12,17.20
2020,06,27,16,13,17.30
2020,06,27,16,14,17.30
2020,06,27,16,15,17.40
2020,06,27,16,16,17.40
2020,06,27,16,17,17.40
2020,06,27,16,18,17.50
2020,06,27,16,19,17.60
2020,06,27,16,20,17.60
2020,06,27,16,21,17.60
2020,06,27,16,22,17.60
2020,06,27,16,23,17.70
2020,06,27,16,24,17.80
2020,06,27,16,25,17.80
2020,06,27,16,26,17.80
2020,06,27,16,27,17.80
2020,06,27,16,28,17.90
2020,06,27,16,29,17.80
2020,06,27,16,30,17.90
2020,06,27,16,31,17.90
2020,06,27,16,32,18.00
2020,06,27,16,33,18.00
2020,06,27,16,34,18.10
2020,06,27,16,35,18.10
2020,06,27,16,36,18.10
2020,06,27,16,37,18.10
2020,06,27,16,38,18.10
2020,06,27,16,39,18.20
2020,06,27,16,40,18.20
2020,06,27,16,41,18.10
2020,06,27,16,42,18.00
2020,06,27,16,43,18.00
2020,06,27,16,44,17.90
2020,06,27,16,45,17.90
2020,06,27,16,46,17.90
2020,06,27,16,47,17.80
2020,06,27,16,48,17.80
2020,06,27,16,49,17.70
2020,06,27,16,50,17.70
2020,06,27,16,51,17.80
2020,06,27,16,52,17.80
2020,06,27,16,53,17.90
2020,06,27,16,54,18.00
2020,06,27,16,55,18.20
2020,06,27,16,56,18.20
2020,06,27,16,57,18.30
2020,06,27,16,58,18.30
2020,06,27,16,59,18.30
2020,06,27,17,00,18.40
2020,06,27,17,01,18.40
2020,06,27,17,02,18.40
2020,06,27,17,03,18.40
2020,06,27,17,04,18.40
2020,06,27,17,05,18.40
2020,06,27,17,06,18.40
2020,06,27,17,07,18.30
2020,06,27,17,08,18.30
2020,06,27,17,09,18.20
2020,06,27,17,10,18.20
2020,06,27,17,11,18.30
2020,06,27,17,12,18.30
2020,06,27,17,13,18.30
2020,06,27,17,14,18.30
2020,06,27,17,15,18.30
2020,06,27,17,16,18.30
2020,06,27,17,17,18.30
2020,06,27,17,18,18.30
2020,06,27,17,19,18.30